Flag for Belgium Weather past 2 weeks in Charleroi, Belgium

Now
52 °F

Clear.


Feels Like: 50 °F
Forecast: 52 / 64 °F
Wind: 6 mph from Southwest

Location: Charleroi / Gosselies

Current Time: Aug 22, 2014 at 7:11:40 AM

Latest Report: Aug 22, 2014 at 6:20 AM


Visibility: 10 mi

Pressure: 29.92 "Hg

Humidity: 82%

Dew point: 46 °F

Location of CharleroiLocation

Historic Weather in Charleroi — Graph

°F

Charleroi temperature yesterday

Maximum temperature yesterday: 63 °F (at 12:50 PM)
Minimum temperature yesterday: 46 °F (at 6:20 AM)
Average temperature yesterday: 55 °F

Past Weeks' High & Low Weather Summary

 TemperatureHumidityPressure
High77 °F (Aug 7, 4:50 PM)100% (Aug 7, 5:20 AM)30.18 "Hg (Aug 7, 5:20 AM)
Low46 °F (Aug 20, 4:20 AM)43% (Aug 18, 2:20 PM)29.53 "Hg (Aug 10, 5:50 PM)
Average59 °F79%29.90 "Hg
* Reported Aug 7 5:20 AM — Aug 22 5:50 AM, Charleroi, Weather by CustomWeather, © 2014

Note: Actual official high and low records may vary slightly from our data, if they occured in-between our weather recording intervals... More about our weather records

Advertising

Charleroi weather history for previous 24 hours

 ConditionsComfort  
Time TempWeatherWind HumidityBarometerVisibility
5:50 AM
Aug 22
52 °FClear.7 mph82%29.92 "Hg10 mi
5:20 AM52 °FClear.7 mph82%29.92 "Hg10 mi
4:50 AM52 °FClear.6 mph82%29.95 "Hg10 mi
4:20 AM52 °FClear.7 mph82%29.95 "Hg10 mi
3:50 AM52 °FClear.6 mph82%29.95 "Hg10 mi
3:20 AM52 °FClear.6 mph82%29.95 "Hg10 mi
2:50 AM52 °FClear.6 mph82%29.98 "Hg10 mi
2:20 AM52 °FClear.6 mph82%29.98 "Hg10 mi
1:50 AM54 °FClear.6 mph77%29.98 "Hg10 mi
1:20 AM54 °FClear.6 mph77%29.98 "Hg10 mi
12:50 AM54 °FClear.6 mph77%29.98 "Hg10 mi
12:20 AM54 °FClear.6 mph77%29.98 "Hg10 mi
11:50 PM
Aug 21
55 °FClear.6 mph72%30.01 "Hg10 mi
11:20 PM55 °FClear.6 mph72%30.01 "Hg10 mi
10:50 PM55 °FClear.6 mph72%30.01 "Hg10 mi
10:20 PM55 °FClear.7 mph72%30.01 "Hg10 mi
9:50 PM55 °FClear.7 mph67%30.01 "Hg10 mi
9:20 PM57 °FSunny.8 mph63%30.01 "Hg10 mi
8:50 PM59 °FPassing clouds.8 mph59%29.98 "HgN/A
8:20 PM59 °FPassing clouds.9 mph63%29.98 "HgN/A
7:50 PM61 °FPassing clouds.9 mph59%29.98 "HgN/A
7:20 PM61 °FPassing clouds.9 mph59%30.01 "HgN/A
6:50 PM61 °FPassing clouds.9 mph59%30.01 "HgN/A
6:20 PM61 °FPassing clouds.13 mph59%30.01 "HgN/A
5:50 PM63 °FPassing clouds.13 mph56%30.01 "HgN/A
5:20 PM63 °FPassing clouds.12 mph56%30.01 "HgN/A
4:50 PM61 °FPassing clouds.9 mph59%30.01 "HgN/A
4:20 PM59 °FPassing clouds.9 mph68%30.04 "HgN/A
3:50 PM55 °FSprinkles. Passing clouds.14 mph82%30.04 "HgN/A
3:20 PM61 °FPassing clouds.12 mph55%30.04 "HgN/A
2:50 PM63 °FPassing clouds.14 mph49%30.04 "HgN/A
2:20 PM63 °FPassing clouds.10 mph52%30.04 "HgN/A
1:50 PM63 °FScattered clouds.14 mph52%30.04 "HgN/A
1:20 PM61 °FScattered clouds.10 mph55%30.04 "HgN/A
12:50 PM63 °FScattered clouds.9 mph56%30.04 "HgN/A
12:20 PM61 °FScattered clouds.10 mph59%30.07 "HgN/A
11:50 AM59 °FPassing clouds.12 mph63%30.07 "HgN/A
11:20 AM59 °FPassing clouds.12 mph68%30.07 "HgN/A
10:50 AM57 °FPassing clouds.9 mph67%30.07 "HgN/A
10:20 AM55 °FPassing clouds.9 mph77%30.07 "HgN/A
9:50 AM54 °FPassing clouds.9 mph82%30.07 "HgN/A
9:20 AM54 °FPassing clouds.8 mph82%30.07 "HgN/A
8:50 AM52 °FSunny.8 mph88%30.04 "Hg10 mi
8:20 AM50 °FSunny.7 mph88%30.04 "Hg10 mi
7:50 AM48 °FSunny.7 mph87%30.04 "Hg10 mi
7:20 AM46 °FClear.7 mph93%30.04 "Hg10 mi
Weather by CustomWeather, © 2014

See weather overviewHow to use our weather pages